TimeCDT,TemperatureF,Dew PointF,Humidity,Sea Level PressureIn,VisibilityMPH,Wind Direction,Wind SpeedMPH,Gust SpeedMPH,PrecipitationIn,Events,Conditions,WindDirDegrees,DateUTC
12:56 AM,3.0,-0.9,84,30.40,10.0,WNW,6.9,-,N/A,,Clear,290,2013-03-13 05:56:00
1:56 AM,1.0,-2.9,83,30.41,10.0,Calm,Calm,-,N/A,,Clear,0,2013-03-13 06:56:00
2:56 AM,-2.9,-5.1,90,30.40,10.0,WNW,3.5,-,N/A,,Clear,290,2013-03-13 07:56:00
3:56 AM,-2.9,-7.1,82,30.39,10.0,Calm,Calm,-,N/A,,Clear,0,2013-03-13 08:56:00
4:56 AM,-7.1,-9.9,87,30.38,10.0,Calm,Calm,-,N/A,,Clear,0,2013-03-13 09:56:00
5:56 AM,-6.0,-9.9,83,30.39,10.0,Calm,Calm,-,N/A,,Clear,0,2013-03-13 10:56:00
6:56 AM,-8.0,-13.0,79,30.40,10.0,Calm,Calm,-,N/A,,Partly Cloudy,0,2013-03-13 11:56:00
7:11 AM,-7.6,-13.0,77,30.28,10.0,Calm,Calm,-,N/A,,Mostly Cloudy,0,2013-03-13 12:11:00
7:46 AM,-7.6,-11.2,84,30.28,2.5,Calm,Calm,-,N/A,,Scattered Clouds,0,2013-03-13 12:46:00
7:51 AM,-9.4,-14.8,77,30.28,1.0,Calm,Calm,-,N/A,,Mist,0,2013-03-13 12:51:00
7:56 AM,-9.0,-14.1,79,30.41,1.0,Calm,Calm,-,N/A,,Haze,0,2013-03-13 12:56:00
8:14 AM,-7.6,-11.2,84,30.28,10.0,Calm,Calm,-,N/A,,Clear,0,2013-03-13 13:14:00
8:48 AM,-7.6,-11.2,84,30.28,10.0,South,3.5,-,N/A,,Partly Cloudy,170,2013-03-13 13:48:00
8:56 AM,-8.0,-11.0,86,30.40,10.0,SSE,4.6,-,N/A,,Partly Cloudy,150,2013-03-13 13:56:00
9:56 AM,-2.0,-5.1,87,30.39,10.0,SSE,4.6,-,N/A,,Clear,150,2013-03-13 14:56:00
10:56 AM,5.0,-0.0,80,30.38,10.0,South,5.8,-,N/A,,Clear,170,2013-03-13 15:56:00
11:56 AM,10.9,6.1,81,30.37,10.0,South,11.5,-,N/A,,Clear,170,2013-03-13 16:56:00
12:56 PM,14.0,9.0,80,30.34,10.0,South,15.0,-,N/A,,Clear,180,2013-03-13 17:56:00
1:56 PM,19.0,12.0,74,30.30,10.0,South,13.8,-,N/A,,Mostly Cloudy,170,2013-03-13 18:56:00
3:56 PM,21.9,15.1,75,30.23,10.0,SSE,17.3,-,N/A,,Partly Cloudy,150,2013-03-13 20:56:00
4:56 PM,21.9,15.1,75,30.22,10.0,SSE,16.1,24.2,N/A,,Overcast,150,2013-03-13 21:56:00
5:56 PM,21.9,15.1,75,30.20,10.0,SSE,16.1,-,N/A,,Overcast,160,2013-03-13 22:56:00
6:56 PM,21.9,15.1,75,30.17,10.0,South,17.3,-,N/A,,Overcast,170,2013-03-13 23:56:00
7:56 PM,21.9,16.0,78,30.14,10.0,SSE,18.4,24.2,N/A,,Scattered Clouds,160,2013-03-14 00:56:00
8:56 PM,23.0,18.0,81,30.12,10.0,South,19.6,-,N/A,,Overcast,170,2013-03-14 01:56:00
9:56 PM,24.1,19.0,81,30.09,10.0,SSE,13.8,-,0.00,,Overcast,160,2013-03-14 02:56:00
10:56 PM,25.0,21.0,85,30.04,10.0,South,18.4,-,N/A,,Overcast,170,2013-03-14 03:56:00
11:56 PM,25.0,21.0,85,30.04,10.0,SSE,9.2,-,N/A,,Clear,150,2013-03-14 04:56:00